﻿測定場所 (Monitoring sites),日付 (Measurement date),時間 (Measurement time),線量率 最大値 (max) μGy/h,線量率 最小値 (min) μGy/h,線量率 平均値 (average) μGy/h,
江戸川 (Edogawa),2018-12-16,23:01～24:00,0.0506,0.0441,0.0473,
江戸川 (Edogawa),2018-12-16,22:01～23:00,0.0505,0.0447,0.0474,
江戸川 (Edogawa),2018-12-16,21:01～22:00,0.0508,0.0435,0.0472,
江戸川 (Edogawa),2018-12-16,20:01～21:00,0.0506,0.0446,0.0474,
江戸川 (Edogawa),2018-12-16,19:01～20:00,0.0500,0.0441,0.0479,
江戸川 (Edogawa),2018-12-16,18:01～19:00,0.0509,0.0450,0.0475,
江戸川 (Edogawa),2018-12-16,17:01～18:00,0.0499,0.0436,0.0474,
江戸川 (Edogawa),2018-12-16,16:01～17:00,0.0501,0.0431,0.0473,
江戸川 (Edogawa),2018-12-16,15:01～16:00,0.0513,0.0435,0.0476,
江戸川 (Edogawa),2018-12-16,14:01～15:00,0.0501,0.0435,0.0472,
江戸川 (Edogawa),2018-12-16,13:01～14:00,0.0499,0.0450,0.0473,
江戸川 (Edogawa),2018-12-16,12:01～13:00,0.0504,0.0444,0.0472,
江戸川 (Edogawa),2018-12-16,11:01～12:00,0.0510,0.0450,0.0477,
江戸川 (Edogawa),2018-12-16,10:01～11:00,0.0510,0.0440,0.0475,
江戸川 (Edogawa),2018-12-16,09:01～10:00,0.0509,0.0440,0.0478,
江戸川 (Edogawa),2018-12-16,08:01～09:00,0.0509,0.0446,0.0478,
江戸川 (Edogawa),2018-12-16,07:01～08:00,0.0514,0.0446,0.0475,
江戸川 (Edogawa),2018-12-16,06:01～07:00,0.0509,0.0443,0.0472,
江戸川 (Edogawa),2018-12-16,05:01～06:00,0.0507,0.0444,0.0471,
江戸川 (Edogawa),2018-12-16,04:01～05:00,0.0500,0.0439,0.0469,
江戸川 (Edogawa),2018-12-16,03:01～04:00,0.0488,0.0436,0.0463,
江戸川 (Edogawa),2018-12-16,02:01～03:00,0.0491,0.0435,0.0467,
江戸川 (Edogawa),2018-12-16,01:01～02:00,0.0496,0.0425,0.0466,
江戸川 (Edogawa),2018-12-16,00:01～01:00,0.0497,0.0430,0.0464,
江戸川 (Edogawa),2018-12-15,23:01～24:00,0.0493,0.0435,0.0464,
江戸川 (Edogawa),2018-12-15,22:01～23:00,0.0497,0.0445,0.0467,
江戸川 (Edogawa),2018-12-15,21:01～22:00,0.0501,0.0432,0.0464,
江戸川 (Edogawa),2018-12-15,20:01～21:00,0.0493,0.0434,0.0461,
江戸川 (Edogawa),2018-12-15,19:01～20:00,0.0491,0.0428,0.0464,
江戸川 (Edogawa),2018-12-15,18:01～19:00,0.0499,0.0418,0.0465,
江戸川 (Edogawa),2018-12-15,17:01～18:00,0.0504,0.0421,0.0466,
江戸川 (Edogawa),2018-12-15,16:01～17:00,0.0497,0.0442,0.0466,
江戸川 (Edogawa),2018-12-15,15:01～16:00,0.0495,0.0432,0.0467,
江戸川 (Edogawa),2018-12-15,14:01～15:00,0.0524,0.0437,0.0469,
江戸川 (Edogawa),2018-12-15,13:01～14:00,0.0495,0.0434,0.0468,
江戸川 (Edogawa),2018-12-15,12:01～13:00,0.0503,0.0430,0.0468,
江戸川 (Edogawa),2018-12-15,11:01～12:00,0.0507,0.0449,0.0471,
江戸川 (Edogawa),2018-12-15,10:01～11:00,0.0495,0.0434,0.0466,
江戸川 (Edogawa),2018-12-15,09:01～10:00,0.0499,0.0442,0.0467,
江戸川 (Edogawa),2018-12-15,08:01～09:00,0.0496,0.0435,0.0469,
江戸川 (Edogawa),2018-12-15,07:01～08:00,0.0499,0.0435,0.0467,
江戸川 (Edogawa),2018-12-15,06:01～07:00,0.0495,0.0442,0.0471,
江戸川 (Edogawa),2018-12-15,05:01～06:00,0.0504,0.0439,0.0472,
江戸川 (Edogawa),2018-12-15,04:01～05:00,0.0496,0.0432,0.0467,
江戸川 (Edogawa),2018-12-15,03:01～04:00,0.0516,0.0442,0.0469,
江戸川 (Edogawa),2018-12-15,02:01～03:00,0.0515,0.0437,0.0471,
江戸川 (Edogawa),2018-12-15,01:01～02:00,0.0498,0.0447,0.0474,
江戸川 (Edogawa),2018-12-15,00:01～01:00,0.0506,0.0438,0.0473,
江戸川 (Edogawa),2018-12-14,23:01～24:00,0.0496,0.0439,0.0470,
江戸川 (Edogawa),2018-12-14,22:01～23:00,0.0503,0.0441,0.0469,
江戸川 (Edogawa),2018-12-14,21:01～22:00,0.0501,0.0445,0.0470,
江戸川 (Edogawa),2018-12-14,20:01～21:00,0.0501,0.0448,0.0472,
江戸川 (Edogawa),2018-12-14,19:01～20:00,0.0496,0.0433,0.0471,
江戸川 (Edogawa),2018-12-14,18:01～19:00,0.0494,0.0436,0.0467,
江戸川 (Edogawa),2018-12-14,17:01～18:00,0.0498,0.0437,0.0469,
江戸川 (Edogawa),2018-12-14,16:01～17:00,0.0500,0.0444,0.0474,
江戸川 (Edogawa),2018-12-14,15:01～16:00,0.0499,0.0431,0.0468,
江戸川 (Edogawa),2018-12-14,14:01～15:00,0.0507,0.0439,0.0473,
江戸川 (Edogawa),2018-12-14,13:01～14:00,0.0502,0.0444,0.0476,
江戸川 (Edogawa),2018-12-14,12:01～13:00,0.0516,0.0429,0.0475,
江戸川 (Edogawa),2018-12-14,11:01～12:00,0.0508,0.0440,0.0473,
江戸川 (Edogawa),2018-12-14,10:01～11:00,0.0501,0.0447,0.0472,
江戸川 (Edogawa),2018-12-14,09:01～10:00,0.0508,0.0448,0.0476,
江戸川 (Edogawa),2018-12-14,08:01～09:00,0.0499,0.0442,0.0468,
江戸川 (Edogawa),2018-12-14,07:01～08:00,0.0510,0.0437,0.0469,
江戸川 (Edogawa),2018-12-14,06:01～07:00,0.0499,0.0434,0.0469,
江戸川 (Edogawa),2018-12-14,05:01～06:00,0.0502,0.0433,0.0466,
江戸川 (Edogawa),2018-12-14,04:01～05:00,0.0492,0.0438,0.0469,
江戸川 (Edogawa),2018-12-14,03:01～04:00,0.0501,0.0440,0.0473,
江戸川 (Edogawa),2018-12-14,02:01～03:00,0.0505,0.0440,0.0470,
江戸川 (Edogawa),2018-12-14,01:01～02:00,0.0493,0.0430,0.0463,
江戸川 (Edogawa),2018-12-14,00:01～01:00,0.0498,0.0437,0.0463,
江戸川 (Edogawa),2018-12-13,23:01～24:00,0.0491,0.0434,0.0463,
江戸川 (Edogawa),2018-12-13,22:01～23:00,0.0508,0.0431,0.0464,
江戸川 (Edogawa),2018-12-13,21:01～22:00,0.0509,0.0433,0.0465,
江戸川 (Edogawa),2018-12-13,20:01～21:00,0.0491,0.0426,0.0463,
江戸川 (Edogawa),2018-12-13,19:01～20:00,0.0498,0.0436,0.0466,
江戸川 (Edogawa),2018-12-13,18:01～19:00,0.0505,0.0440,0.0475,
江戸川 (Edogawa),2018-12-13,17:01～18:00,0.0525,0.0446,0.0485,
江戸川 (Edogawa),2018-12-13,16:01～17:00,0.0529,0.0443,0.0491,
江戸川 (Edogawa),2018-12-13,15:01～16:00,0.0495,0.0435,0.0467,
江戸川 (Edogawa),2018-12-13,14:01～15:00,0.0478,0.0407,0.0446,
江戸川 (Edogawa),2018-12-13,13:01～14:00,0.0501,0.0428,0.0456,
江戸川 (Edogawa),2018-12-13,12:01～13:00,0.0487,0.0420,0.0455,
江戸川 (Edogawa),2018-12-13,11:01～12:00,0.0484,0.0423,0.0453,
江戸川 (Edogawa),2018-12-13,10:01～11:00,0.0489,0.0420,0.0456,
江戸川 (Edogawa),2018-12-13,09:01～10:00,0.0476,0.0424,0.0452,
江戸川 (Edogawa),2018-12-13,08:01～09:00,0.0484,0.0423,0.0453,
江戸川 (Edogawa),2018-12-13,07:01～08:00,0.0483,0.0421,0.0453,
江戸川 (Edogawa),2018-12-13,06:01～07:00,0.0484,0.0428,0.0453,
江戸川 (Edogawa),2018-12-13,05:01～06:00,0.0491,0.0427,0.0458,
江戸川 (Edogawa),2018-12-13,04:01～05:00,0.0482,0.0420,0.0457,
江戸川 (Edogawa),2018-12-13,03:01～04:00,0.0489,0.0433,0.0459,
江戸川 (Edogawa),2018-12-13,02:01～03:00,0.0487,0.0414,0.0456,
江戸川 (Edogawa),2018-12-13,01:01～02:00,0.0492,0.0425,0.0459,
江戸川 (Edogawa),2018-12-13,00:01～01:00,0.0486,0.0420,0.0455,
江戸川 (Edogawa),2018-12-12,23:01～24:00,0.0475,0.0417,0.0452,
江戸川 (Edogawa),2018-12-12,22:01～23:00,0.0484,0.0425,0.0455,
江戸川 (Edogawa),2018-12-12,21:01～22:00,0.0491,0.0423,0.0455,
江戸川 (Edogawa),2018-12-12,20:01～21:00,0.0485,0.0421,0.0447,
江戸川 (Edogawa),2018-12-12,19:01～20:00,0.0481,0.0416,0.0448,
江戸川 (Edogawa),2018-12-12,18:01～19:00,0.0485,0.0420,0.0451,
江戸川 (Edogawa),2018-12-12,17:01～18:00,0.0487,0.0424,0.0454,
江戸川 (Edogawa),2018-12-12,16:01～17:00,0.0478,0.0414,0.0453,
江戸川 (Edogawa),2018-12-12,15:01～16:00,0.0477,0.0428,0.0449,
江戸川 (Edogawa),2018-12-12,14:01～15:00,0.0492,0.0413,0.0454,
江戸川 (Edogawa),2018-12-12,13:01～14:00,0.0476,0.0414,0.0454,
江戸川 (Edogawa),2018-12-12,12:01～13:00,0.0485,0.0424,0.0458,
江戸川 (Edogawa),2018-12-12,11:01～12:00,0.0518,0.0444,0.0483,
江戸川 (Edogawa),2018-12-12,10:01～11:00,0.0568,0.0479,0.0530,
江戸川 (Edogawa),2018-12-12,09:01～10:00,0.0590,0.0518,0.0551,
江戸川 (Edogawa),2018-12-12,08:01～09:00,0.0585,0.0494,0.0547,
江戸川 (Edogawa),2018-12-12,07:01～08:00,0.0561,0.0446,0.0504,
江戸川 (Edogawa),2018-12-12,06:01～07:00,0.0494,0.0425,0.0456,
江戸川 (Edogawa),2018-12-12,05:01～06:00,0.0525,0.0434,0.0484,
江戸川 (Edogawa),2018-12-12,04:01～05:00,0.0587,0.0474,0.0527,
江戸川 (Edogawa),2018-12-12,03:01～04:00,0.0577,0.0507,0.0542,
江戸川 (Edogawa),2018-12-12,02:01～03:00,0.0620,0.0529,0.0574,
江戸川 (Edogawa),2018-12-12,01:01～02:00,0.0656,0.0584,0.0614,
江戸川 (Edogawa),2018-12-12,00:01～01:00,0.0634,0.0553,0.0595,
江戸川 (Edogawa),2018-12-11,23:01～24:00,0.0600,0.0506,0.0555,
江戸川 (Edogawa),2018-12-11,22:01～23:00,0.0595,0.0510,0.0559,
江戸川 (Edogawa),2018-12-11,21:01～22:00,0.0595,0.0531,0.0565,
江戸川 (Edogawa),2018-12-11,20:01～21:00,0.0573,0.0513,0.0539,
江戸川 (Edogawa),2018-12-11,19:01～20:00,0.0559,0.0473,0.0522,
江戸川 (Edogawa),2018-12-11,18:01～19:00,0.0540,0.0463,0.0507,
江戸川 (Edogawa),2018-12-11,17:01～18:00,0.0555,0.0480,0.0514,
江戸川 (Edogawa),2018-12-11,16:01～17:00,0.0548,0.0467,0.0506,
江戸川 (Edogawa),2018-12-11,15:01～16:00,0.0522,0.0445,0.0477,
江戸川 (Edogawa),2018-12-11,14:01～15:00,0.0510,0.0430,0.0467,
江戸川 (Edogawa),2018-12-11,13:01～14:00,0.0511,0.0428,0.0467,
江戸川 (Edogawa),2018-12-11,12:01～13:00,0.0500,0.0443,0.0466,
江戸川 (Edogawa),2018-12-11,11:01～12:00,0.0499,0.0431,0.0466,
江戸川 (Edogawa),2018-12-11,10:01～11:00,0.0521,0.0444,0.0473,
江戸川 (Edogawa),2018-12-11,09:01～10:00,0.0518,0.0442,0.0477,
江戸川 (Edogawa),2018-12-11,08:01～09:00,0.0499,0.0446,0.0474,
江戸川 (Edogawa),2018-12-11,07:01～08:00,0.0505,0.0444,0.0467,
江戸川 (Edogawa),2018-12-11,06:01～07:00,0.0504,0.0436,0.0467,
江戸川 (Edogawa),2018-12-11,05:01～06:00,0.0514,0.0432,0.0466,
江戸川 (Edogawa),2018-12-11,04:01～05:00,0.0486,0.0433,0.0463,
江戸川 (Edogawa),2018-12-11,03:01～04:00,0.0498,0.0435,0.0463,
江戸川 (Edogawa),2018-12-11,02:01～03:00,0.0487,0.0422,0.0460,
江戸川 (Edogawa),2018-12-11,01:01～02:00,0.0491,0.0435,0.0461,
江戸川 (Edogawa),2018-12-11,00:01～01:00,0.0503,0.0435,0.0466,
江戸川 (Edogawa),2018-12-10,23:01～24:00,0.0503,0.0424,0.0460,
江戸川 (Edogawa),2018-12-10,22:01～23:00,0.0486,0.0436,0.0461,
江戸川 (Edogawa),2018-12-10,21:01～22:00,0.0498,0.0427,0.0459,
江戸川 (Edogawa),2018-12-10,20:01～21:00,0.0489,0.0431,0.0460,
江戸川 (Edogawa),2018-12-10,19:01～20:00,0.0488,0.0427,0.0459,
江戸川 (Edogawa),2018-12-10,18:01～19:00,0.0502,0.0425,0.0456,
江戸川 (Edogawa),2018-12-10,17:01～18:00,0.0495,0.0423,0.0462,
江戸川 (Edogawa),2018-12-10,16:01～17:00,0.0487,0.0433,0.0459,
江戸川 (Edogawa),2018-12-10,15:01～16:00,0.0486,0.0427,0.0460,
江戸川 (Edogawa),2018-12-10,14:01～15:00,0.0492,0.0427,0.0463,
江戸川 (Edogawa),2018-12-10,13:01～14:00,0.0491,0.0436,0.0463,
江戸川 (Edogawa),2018-12-10,12:01～13:00,0.0499,0.0439,0.0464,
江戸川 (Edogawa),2018-12-10,11:01～12:00,0.0483,0.0424,0.0457,
江戸川 (Edogawa),2018-12-10,10:01～11:00,0.0492,0.0419,0.0460,
江戸川 (Edogawa),2018-12-10,09:01～10:00,0.0493,0.0430,0.0460,
江戸川 (Edogawa),2018-12-10,08:01～09:00,0.0494,0.0428,0.0461,
江戸川 (Edogawa),2018-12-10,07:01～08:00,0.0490,0.0432,0.0462,
江戸川 (Edogawa),2018-12-10,06:01～07:00,0.0495,0.0439,0.0462,
江戸川 (Edogawa),2018-12-10,05:01～06:00,0.0491,0.0432,0.0459,
江戸川 (Edogawa),2018-12-10,04:01～05:00,0.0501,0.0424,0.0462,
江戸川 (Edogawa),2018-12-10,03:01～04:00,0.0483,0.0429,0.0461,
江戸川 (Edogawa),2018-12-10,02:01～03:00,0.0491,0.0429,0.0462,
江戸川 (Edogawa),2018-12-10,01:01～02:00,0.0490,0.0421,0.0459,
江戸川 (Edogawa),2018-12-10,00:01～01:00,0.0487,0.0435,0.0461,
